EW7099 Weather Reports


time (UTC)temp
C
wind
direction
speed
KPH
gust
KPH
rain 1hr
cm
rain 24hr
cm
rain mn
cm
humidity
%
barometer
mb
20260502161517 34 178 16.1 24.1 0.00 0.00 0.00 49 1009.7
20260502151549 31 227 9.7 20.9 0.00 0.00 0.00 47 1009.7
20260502123112 23 22 1.6 6.4 0.00 0.00 0.00 83 1007.4
20260502121556 23 277 0.0 0.0 0.00 0.00 0.00 83 1007.1
20260502114546 23 276 0.0 3.2 0.00 0.00 0.00 86 1006.8
20260502113050 23 287 0.0 4.8 0.00 0.00 0.00 86 1006.7
20260502111547 24 281 1.6 8.0 0.00 0.00 0.00 86 1006.6
20260502110039 24 293 0.0 8.0 0.00 0.00 0.00 85 1006.6
20260502104537 24 300 0.0 1.6 0.00 0.00 0.00 85 1006.4
20260502103035 25 304 1.6 8.0 0.00 0.00 0.00 84 1006.4
20260502101539 25 285 1.6 11.3 0.00 0.00 0.00 84 1006.4
20260502091528 25 269 6.4 11.3 0.00 0.00 0.00 85 1007.0
20260502071510 26 271 4.8 12.9 0.00 0.00 0.00 83 1008.5
20260502070015 26 233 3.2 14.5 0.00 0.00 0.00 83 1008.7
20260502064505 26 323 8.0 14.5 0.00 0.00 0.00 83 1008.8
20260502063003 26 267 8.0 16.1 0.00 0.00 0.00 83 1008.8
20260502061501 26 261 6.4 14.5 0.00 0.00 0.00 84 1009.0
20260502060059 26 246 6.4 17.7 0.00 0.00 0.00 84 1009.1
20260502054556 26 258 8.0 17.7 0.00 0.00 0.00 85 1009.2
20260502053058 26 293 6.4 16.1 0.00 0.00 0.00 85 1009.2
20260502051601 27 250 8.0 16.1 0.00 0.00 0.00 84 1009.2
20260502050052 27 296 9.7 19.3 0.00 0.00 0.00 84 1009.3
20260502044520 27 238 4.8 16.1 0.00 0.00 0.00 83 1009.2
20260502043019 27 272 6.4 16.1 0.00 0.00 0.00 83 1009.0
20260502041546 27 242 8.0 19.3 0.00 0.00 0.00 83 1008.8
20260502040044 27 275 9.7 19.3 0.00 0.00 0.00 83 1008.6
20260502034539 27 219 6.4 19.3 0.00 0.00 0.00 82 1008.3
20260502033035 27 286 11.3 22.5 0.00 0.00 0.00 83 1008.0
20260502031533 27 230 8.0 24.1 0.00 0.00 0.00 82 1007.8
20260502030033 27 274 9.7 24.1 0.00 0.00 0.00 82 1007.5
20260502024555 27 289 4.8 20.9 0.00 0.00 0.00 81 1007.2
20260502023053 27 248 11.3 24.1 0.00 0.00 0.00 81 1006.8
20260502021522 27 213 8.0 20.9 0.00 0.00 0.00 80 1006.5
20260502020018 27 230 12.9 25.7 0.00 0.00 0.00 79 1006.3
20260502014512 28 276 9.7 22.5 0.00 0.00 0.00 78 1006.0
20260502013012 28 221 9.7 24.1 0.00 0.00 0.00 77 1005.6
20260502011504 28 252 8.0 32.2 0.00 0.00 0.00 75 1005.2
20260502010101 28 242 12.9 33.8 0.00 0.00 0.00 72 1005.1
20260502004527 29 254 12.9 29.0 0.00 0.00 0.00 70 1004.8
20260502003026 30 215 12.9 35.4 0.00 0.00 0.00 68 1004.4
20260502001523 30 246 11.3 32.2 0.00 0.00 0.00 66 1004.2
20260502000022 31 229 12.9 29.0 0.00 0.00 0.00 64 1004.0
20260501234521 31 271 12.9 32.2 0.00 0.00 0.00 63 1003.8
20260501233020 32 246 12.9 25.7 0.00 0.00 0.00 61 1003.6
20260501231517 32 265 12.9 35.4 0.00 0.00 0.00 59 1003.5
20260501230017 32 208 14.5 25.7 0.00 0.00 0.00 61 1003.4
20260501224515 32 192 16.1 30.6 0.00 0.00 0.00 62 1003.3
20260501223015 32 215 12.9 33.8 0.00 0.00 0.00 61 1003.4
20260501221516 33 218 17.7 32.2 0.00 0.00 0.00 60 1003.3
20260501220014 33 178 19.3 32.2 0.00 0.00 0.00 57 1003.3
20260501214510 33 243 12.9 37.0 0.00 0.00 0.00 53 1003.2
20260501213011 33 217 19.3 35.4 0.00 0.00 0.00 58 1003.2
20260501211508 33 207 16.1 33.8 0.00 0.00 0.00 58 1003.2
20260501210006 34 176 17.7 33.8 0.00 0.00 0.00 58 1003.2
20260501204508 34 172 20.9 33.8 0.00 0.00 0.00 58 1003.2
20260501203001 33 194 16.1 38.6 0.00 0.00 0.00 58 1003.6
20260501201601 34 174 20.9 41.8 0.00 0.00 0.00 57 1003.6
20260501200055 34 192 20.9 43.5 0.00 0.00 0.00 56 1003.9
20260501194617 35 208 12.9 32.2 0.00 0.00 0.00 54 1004.0
20260501193052 35 166 16.1 41.8 0.00 0.00 0.00 52 1004.2
20260501191524 35 195 24.1 38.6 0.00 0.00 0.00 51 1004.4
20260501190030 35 177 19.3 38.6 0.00 0.00 0.00 50 1004.7
20260501184513 35 178 20.9 43.5 0.00 0.00 0.00 51 1004.9
20260501183009 35 203 19.3 35.4 0.00 0.00 0.00 49 1005.1
20260501181518 35 185 20.9 37.0 0.00 0.00 0.00 46 1005.4
20260501180011 35 178 14.5 32.2 0.00 0.00 0.00 45 1005.6
20260501174502 35 178 16.1 35.4 0.00 0.00 0.00 46 1005.7
20260501173114 35 177 19.3 40.2 0.00 0.00 0.00 45 1005.8
20260501171555 35 233 11.3 24.1 0.00 0.00 0.00 48 1006.0
20260501170051 34 279 8.0 24.1 0.00 0.00 0.00 48 1006.2
20260501164550 33 192 12.9 30.6 0.00 0.00 0.00 49 1006.3
20260501163014 33 238 12.9 30.6 0.00 0.00 0.00 50 1006.5